Location: Coupvray
(48.8929°N, 2.7967°E)
Time: 00:12:57
(UTC+00:00)

Cosmos 724 - Pass Details

Date: 02 November 2020
Orbit: 851 x 943 km, 65.6° (Epoch: 28 November)

Event Time Altitude Azimuth Distance (km) Brightness Sun altitude
Exits shadow 05:13:50 - 325° (NW) 2,996 6.7 -14.2°
Reaches altitude 10° 05:14:52 10° 328° (NNW) 2,626 6.4 -14.0°
Maximum altitude 05:20:48 48° 43° (NE) 1,204 5.3 -13.1°
Drops below altitude 10° 05:26:47 10° 117° (ESE) 2,654 8.1 -12.1°
Sets 05:29:26 0° 123° (ESE) 3,599 8.8 -11.6°
